When you browse on this site, cookies collect data to enhance your experience and personalize the content and advertising you see.
Visit our Privacy Policy to learn more. By continuing to use the site, you agree to this use of cookies and data.
  • In Romania
  • List of Countries
  • For 7 days
  • Water Temperature
  • Weather Map
  • Weather Widgets
  • user-avatar
    Login

    Hourly Weather Inverclyde

    Today, 30 May, Saturday

    Time Temperature Precipitation Wind Pressure Humidity
    00:00 +18°C° 0 mm 1 mps 766 mmHg 92%
    01:00 +16°C° 0 mm 1 mps 766 mmHg 93%
    02:00 +16°C° 0 mm 1 mps 766 mmHg 93%
    03:00 +16°C° 0 mm 1 mps 766 mmHg 94%
    04:00 +16°C° 0 mm 1 mps 766 mmHg 91%
    05:00 +18°C° 0 mm 1 mps 766 mmHg 89%
    06:00 +19°C° 0 mm 1 mps 766 mmHg 86%
    07:00 +20°C° 0 mm 1 mps 766 mmHg 77%
    08:00 +22°C° 0 mm 1 mps 766 mmHg 69%
    09:00 +23°C° 0 mm 2 mps 766 mmHg 60%
    10:00 +24°C° 0 mm 2 mps 766 mmHg 58%
    11:00 +24°C° 0 mm 2 mps 767 mmHg 56%
    12:00 +25°C° 0 mm 3 mps 767 mmHg 53%
    13:00 +25°C° 0 mm 3 mps 767 mmHg 52%
    14:00 +25°C° 0 mm 3 mps 766 mmHg 51%
    15:00 +25°C° 0 mm 3 mps 766 mmHg 51%
    16:00 +24°C° 0 mm 3 mps 766 mmHg 52%
    17:00 +22°C° 0 mm 3 mps 766 mmHg 53%
    18:00 +21°C° 0 mm 3 mps 766 mmHg 55%
    19:00 +19°C° 0 mm 3 mps 766 mmHg 60%
    20:00 +16°C° 0 mm 2 mps 767 mmHg 66%
    21:00 +14°C° 0 mm 2 mps 767 mmHg 71%
    22:00 +13°C° 0 mm 2 mps 767 mmHg 71%
    23:00 +12°C° 0 mm 2 mps 767 mmHg 71%

    Tomorrow, 31 May, Sunday

    Time Temperature Precipitation Wind Pressure Humidity
    00:00 +10°C° 0 mm 2 mps 768 mmHg 71%
    01:00 +10°C° 0 mm 2 mps 768 mmHg 71%
    02:00 +9°C° 0 mm 2 mps 768 mmHg 70%
    03:00 +10°C° 0 mm 1 mps 768 mmHg 70%
    04:00 +11°C° 0 mm 1 mps 768 mmHg 68%
    05:00 +12°C° 0 mm 1 mps 768 mmHg 65%
    06:00 +13°C° 0 mm 1 mps 768 mmHg 62%
    07:00 +15°C° 0 mm 1 mps 768 mmHg 58%
    08:00 +17°C° 0 mm 2 mps 768 mmHg 54%
    09:00 +18°C° 0 mm 2 mps 768 mmHg 50%
    10:00 +19°C° 0 mm 2 mps 768 mmHg 48%
    11:00 +20°C° 0 mm 3 mps 768 mmHg 45%
    12:00 +21°C° 0 mm 3 mps 768 mmHg 43%
    13:00 +21°C° 0 mm 3 mps 768 mmHg 42%
    14:00 +22°C° 0 mm 3 mps 768 mmHg 41%
    15:00 +22°C° 0 mm 3 mps 768 mmHg 40%
    16:00 +21°C° 0 mm 3 mps 768 mmHg 43%
    17:00 +21°C° 0 mm 2 mps 768 mmHg 45%
    18:00 +20°C° 0 mm 2 mps 768 mmHg 48%
    19:00 +18°C° 0 mm 2 mps 768 mmHg 56%
    20:00 +16°C° 0 mm 1 mps 769 mmHg 63%
    21:00 +14°C° 0 mm 1 mps 769 mmHg 71%
    22:00 +14°C° 0 mm 1 mps 769 mmHg 74%
    23:00 +13°C° 0 mm 1 mps 769 mmHg 77%

    Day after tomorrow, 1 June, Monday

    Time Temperature Precipitation Wind Pressure Humidity
    00:00 +12°C° 0 mm 1 mps 769 mmHg 80%
    01:00 +12°C° 0 mm 1 mps 769 mmHg 80%
    02:00 +12°C° 0 mm 1 mps 769 mmHg 80%
    03:00 +12°C° 0 mm 1 mps 769 mmHg 81%
    04:00 +13°C° 0 mm 1 mps 769 mmHg 78%
    05:00 +14°C° 0 mm 1 mps 769 mmHg 76%
    06:00 +15°C° 0 mm 1 mps 769 mmHg 73%
    07:00 +18°C° 0 mm 1 mps 769 mmHg 67%
    08:00 +19°C° 0 mm 1 mps 769 mmHg 61%
    09:00 +21°C° 0 mm 1 mps 769 mmHg 55%
    10:00 +22°C° 0 mm 1 mps 769 mmHg 52%
    11:00 +23°C° 0 mm 1 mps 769 mmHg 49%
    12:00 +23°C° 0 mm 1 mps 769 mmHg 45%
    13:00 +23°C° 0 mm 1 mps 768 mmHg 46%
    14:00 +23°C° 0 mm 2 mps 768 mmHg 46%
    15:00 +23°C° 0 mm 2 mps 768 mmHg 47%
    16:00 +23°C° 0 mm 1 mps 768 mmHg 53%
    17:00 +22°C° 0 mm 1 mps 768 mmHg 59%
    18:00 +21°C° 0 mm 1 mps 768 mmHg 65%
    19:00 +19°C° 0.1 mm 1 mps 768 mmHg 71%
    20:00 +18°C° 0.1 mm 1 mps 767 mmHg 77%
    21:00 +15°C° 0.1 mm 1 mps 767 mmHg 83%
    22:00 +15°C° 0 mm 1 mps 767 mmHg 85%
    23:00 +15°C° 0 mm 1 mps 767 mmHg 87%

    2 June, Tuesday

    Time Temperature Precipitation Wind Pressure Humidity
    00:00 +14°C° 0 mm 2 mps 766 mmHg 88%
    01:00 +14°C° 0 mm 2 mps 766 mmHg 88%
    02:00 +14°C° 0 mm 2 mps 766 mmHg 88%
    03:00 +14°C° 0 mm 2 mps 765 mmHg 88%
    04:00 +14°C° 0 mm 2 mps 765 mmHg 86%
    05:00 +15°C° 0 mm 2 mps 765 mmHg 84%
    06:00 +16°C° 0 mm 2 mps 764 mmHg 81%
    07:00 +17°C° 0.2 mm 2 mps 764 mmHg 77%
    08:00 +18°C° 0.2 mm 3 mps 764 mmHg 74%
    09:00 +18°C° 0.2 mm 3 mps 764 mmHg 70%
    10:00 +17°C° 1 mm 3 mps 763 mmHg 77%
    11:00 +16°C° 1 mm 2 mps 763 mmHg 84%
    12:00 +15°C° 1 mm 2 mps 763 mmHg 90%
    13:00 +15°C° 1 mm 2 mps 763 mmHg 88%
    14:00 +15°C° 1 mm 2 mps 763 mmHg 87%
    15:00 +14°C° 1 mm 2 mps 763 mmHg 85%
    16:00 +14°C° 0.2 mm 2 mps 763 mmHg 86%
    17:00 +12°C° 0.2 mm 3 mps 763 mmHg 87%
    18:00 +12°C° 0.2 mm 3 mps 763 mmHg 88%
    19:00 +11°C° 0.2 mm 3 mps 763 mmHg 90%
    20:00 +10°C° 0.2 mm 4 mps 763 mmHg 92%
    21:00 +8°C° 0.2 mm 4 mps 764 mmHg 94%
    22:00 +8°C° 0.1 mm 4 mps 764 mmHg 93%
    23:00 +7°C° 0.1 mm 4 mps 764 mmHg 92%

    3 June, Wednesday

    Time Temperature Precipitation Wind Pressure Humidity
    00:00 +7°C° 0.1 mm 4 mps 764 mmHg 92%
    01:00 +7°C° 0.1 mm 4 mps 764 mmHg 92%
    02:00 +6°C° 0.1 mm 4 mps 764 mmHg 92%
    03:00 +6°C° 0.1 mm 4 mps 764 mmHg 92%
    04:00 +6°C° 0.1 mm 4 mps 764 mmHg 90%
    05:00 +6°C° 0.1 mm 4 mps 764 mmHg 89%
    06:00 +6°C° 0.1 mm 5 mps 764 mmHg 87%
    07:00 +7°C° 0.1 mm 5 mps 764 mmHg 85%
    08:00 +7°C° 0.1 mm 5 mps 764 mmHg 82%
    09:00 +8°C° 0.1 mm 6 mps 764 mmHg 79%
    10:00 +8°C° 0.1 mm 5 mps 764 mmHg 77%
    11:00 +8°C° 0.1 mm 5 mps 764 mmHg 74%
    12:00 +9°C° 0.1 mm 5 mps 764 mmHg 72%
    13:00 +9°C° 0 mm 5 mps 764 mmHg 71%
    14:00 +9°C° 0 mm 5 mps 764 mmHg 70%
    15:00 +9°C° 0 mm 5 mps 763 mmHg 69%
    16:00 +8°C° 0 mm 5 mps 763 mmHg 70%
    17:00 +8°C° 0 mm 5 mps 763 mmHg 72%
    18:00 +8°C° 0 mm 5 mps 763 mmHg 73%
    19:00 +7°C° 0 mm 4 mps 763 mmHg 76%
    20:00 +8°C° 0 mm 3 mps 762 mmHg 79%
    21:00 +8°C° 0 mm 3 mps 762 mmHg 82%
    22:00 +7°C° 0 mm 2 mps 762 mmHg 84%
    23:00 +6°C° 0 mm 2 mps 762 mmHg 86%

    4 June, Thursday

    Time Temperature Precipitation Wind Pressure Humidity
    00:00 +6°C° 0 mm 2 mps 761 mmHg 88%
    01:00 +6°C° 0 mm 1 mps 761 mmHg 89%
    02:00 +6°C° 0 mm 1 mps 760 mmHg 91%
    03:00 +6°C° 0 mm 1 mps 759 mmHg 92%
    04:00 +6°C° 0 mm 1 mps 759 mmHg 89%
    05:00 +7°C° 0 mm 1 mps 758 mmHg 87%
    06:00 +8°C° 0 mm 1 mps 758 mmHg 84%
    07:00 +10°C° 0 mm 1 mps 757 mmHg 75%
    08:00 +11°C° 0 mm 1 mps 756 mmHg 66%
    09:00 +13°C° 0 mm 2 mps 756 mmHg 57%
    10:00 +14°C° 0 mm 2 mps 755 mmHg 53%
    11:00 +15°C° 0 mm 2 mps 754 mmHg 49%
    12:00 +17°C° 0 mm 3 mps 753 mmHg 44%
    13:00 +16°C° 0 mm 3 mps 752 mmHg 51%
    14:00 +14°C° 0 mm 3 mps 751 mmHg 57%
    15:00 +13°C° 0 mm 3 mps 750 mmHg 64%
    16:00 +13°C° 0 mm 3 mps 749 mmHg 69%
    17:00 +12°C° 0 mm 3 mps 749 mmHg 74%
    18:00 +13°C° 0 mm 2 mps 748 mmHg 79%
    19:00 +12°C° 0.1 mm 2 mps 748 mmHg 83%
    20:00 +10°C° 0.1 mm 2 mps 747 mmHg 87%
    21:00 +9°C° 0.1 mm 2 mps 747 mmHg 90%
    22:00 +8°C° 0.2 mm 2 mps 747 mmHg 91%
    23:00 +7°C° 0.2 mm 2 mps 747 mmHg 91%
    Show more